Current weather by "City, St" or "zip code"  
 
Advertise Here

Current Conditions: Indianapolis International Airport, IN

Light Snow


28.0 F

Last Updated on Jan 18 2021, 4:54 am EST
Humidity: 81%
Wind Speed: W 9.2 mph
Barometer 29.84 in
Dewpoint: 23.0 F
Visibility: 9.00 mi
Precip: Trace
Heat Index: NA
Wind Chill: 19 F
Current conditions at:

Indianapolis International Airport, IN (KIND)

Lat: 39.72518 Lon: 86.2816

Local Radar Image active severe weather and emergency alerts image image weather storm and storm spotter reports image weather observation monitoring service image
Local
Radar
Active
Alerts
Storm Reports Obs
Monitoring

Sign-up For Email & Text Message Weather Alert Notification Services


Advertise Here

Observation History for Indianapolis International Airport, IN


Time Wind
(mph)
Vis
(mi)
Weather Precip (in) Temperature (F) Relative
Humidity
Wind
Chill
(F)
Heat
Index
(F)
Pressure
Air Dwpt altimeter
(in)
sea level
(mb)
Rmks
4:54 am EST W 9.2 9.00 Light Snow Trace 28.0 23.0 81% 19 NA 29.84 1011.2
3:54 am EST W 13.8 10.00 Overcast Trace 28.0 24.1 85% 17 NA 29.83 1010.9
2:54 am EST W 15.0 8.00 Light Snow Trace 29.0 26.1 89% 18 NA 29.83 1010.6
1:54 am EST W 11.5 9.00 Light Snow -- 29.0 26.1 89% 19 NA 29.80 1010.0
12:54 am EST W 12.7 5.00 Light Snow Fog/Mist Trace 29.0 26.1 89% 19 NA 29.79 1009.4
11:54 pm EST W 12.7 9.00 Light Snow -- 29.0 25.0 85% 19 NA 29.79 1009.4
10:54 pm EST W 15.0 9.00 Light Snow -- 29.0 25.0 85% 18 NA 29.78 1009.2
9:54 pm EST SW 12.7 9.00 Light Snow -- 29.0 25.0 85% 19 NA 29.78 1009.3
8:54 pm EST SW 11.5 9.00 Light Snow Trace 29.0 25.0 85% 19 NA 29.78 1009.4
7:54 pm EST W 9.2 10.00 Overcast Trace 29.0 24.1 82% 20 NA 29.79 1009.5
6:54 pm EST W 10.4 9.00 Light Snow Trace 30.0 25.0 82% 21 NA 29.78 1009.0
5:54 pm EST W 12.7 10.00 Overcast -- 31.0 26.1 82% 21 NA 29.76 1008.4
4:54 pm EST W 10.4 10.00 Overcast Trace 31.0 27.0 85% 22 NA 29.74 1007.9
3:54 pm EST W 8.1 10.00 Light Snow Trace 32.0 27.0 82% 25 NA 29.72 1007.2
2:54 pm EST W 10.4 9.00 Light Snow Trace 32.0 27.0 82% 24 NA 29.72 1006.9
1:54 pm EST W 10.4 10.00 Overcast 00.01 31.0 27.0 85% 22 NA 29.72 1007.1
12:54 pm EST W 12.7 2.50 Light Snow Fog/Mist Trace 32.0 28.9 88% 22 NA 29.73 1007.3
11:54 am EST W 12.7 5.00 Light Snow Fog/Mist 00.01 32.0 28.9 88% 22 NA 29.75 1008.0
10:54 am EST SW 9.2 4.00 Light Snow Fog/Mist Trace 32.0 30.0 92% 24 NA 29.76 1008.6
9:54 am EST SW 3.5 1.25 Light Snow Fog/Mist 00.02 31.0 30.0 96% NA NA 29.76 1008.5
8:54 am EST SW 6.9 7.00 Light Snow Trace 31.0 30.0 96% 24 NA 29.76 1008.4
7:54 am EST SW 8.1 4.00 Light Snow Fog/Mist Trace 31.0 28.9 92% 24 NA 29.75 1008.2
6:54 am EST SW 9.2 7.00 Light Snow Trace 31.0 28.9 92% 23 NA 29.75 1008.0
5:54 am EST SW 9.2 8.00 Light Snow Trace 32.0 30.0 92% 24 NA 29.74 1007.8

Regional Weather Observation


Crawfordsville Municipal Airport, IN (KCFJ)

Overcast
26.0 F

Indianapolis International Airport, IN (KIND)

Light Snow
28.0 F

INDIANAPOLIS, IN (KTYQ)

Overcast
27.0 F

Greencastle Putnam County, IN (K4I7)

Fog/Mist
55.0 F

Greencastle Putnam County, IN (K4I7)

Fog/Mist
55.0 F

Greenwood Municipal Airport, IN (KHFY)

Overcast
32.0 F